{"data":{"norad_id":59077,"epoch":"2026-05-24T23:39:29.757312Z","epoch_age_seconds":90467,"freshness":"FRESH","line1":"1 59077U 24041D   26144.98576108  .00000696  00000+0  34835-4 0  9997","line2":"2 59077  43.0040 239.5221 0001952 279.2669  80.7962 15.27575432125992","mean_motion":15.27575432,"eccentricity":0.0001952,"inclination_deg":43.004,"raan_deg":239.5221,"arg_perigee_deg":279.2669,"mean_anomaly_deg":80.7962,"bstar":3.4835e-5,"rev_number":12599,"period_min":94.267030605137,"perigee_km":481.72346811312,"apogee_km":484.40208050501,"semimajor_km":6861.1997743091,"source":"CELESTRAK","updated_at":"2026-05-25T13:38:18.828057Z"}}